Showing default

SES 9, 41380

Orbit data source: Space-Track

SES 9, 41380 is a payload satellite owned by SES Sat. Leasing (LU) in GEO that was launched on Fri, 04 Mar 2016 UTC via an FALCON 9 launch vehicle from the Air Force Eastern Test Range (AFETR). Payload-class satellites include a variety of spacecraft equipped with specific instruments for various scientific and technological missions. These include communications satellites like Starlink; space stations such as the ISS; scientific satellites like the Hubble; Earth observation satellites from companies like Planet Labs, Umbra, and HawkEye 360; GPS; miniature CubeSats for education and research; and military/defense satellites.

Not visible in the next 10 days
Identifier
41380, 2016-013A
Orbit
GEO
Country
Flag of LULU / SES
Related business
Manufacturer
Boeing/ES
Mission
Operational Commercial Communications
Bus & Motor
BSS-702HP, R-4D?
Mass
5,271 kg wet, ~2,500 kg dry
Launch date (UTC)
2016-03-04 (10 years ago)
Launch vehicle
FALCON 9
Launch site
Air Force Eastern Test Range (AFETR)
Object type
Payload
Rocket body
Debris
Shape & HBR
Box + 2 Pan, 22.0 m
Radar Cross Section
59.953 m², Large (>1 m²)

Expand to show TLE details & history
Last TLE update: 2 days ago

TLE from 2 days ago
0 SES 9
1 41380U 16013A   26171.34216894 -.00000349  00000-0  00000+0 0  9997
2 41380   0.0111 338.5957 0002324 101.7052  59.7247  1.00269311 37476
Epoch: 2026-06-20T08:12Z
TLE epoch observation values (Epoch: 2026-06-20T08:12:43.396Z)
Latitude
0.01351°
Longitude
108.32198°
Altitude
35,781.811 km
Speed
3.075 km/s
True Right ascension
09h 20m 14s
True Declination
0° 00' 49"
Sunlit
Object was in daylight at epoch
Visualization orbit readout
Latitude
Unknown
Longitude
Unknown
Altitude
Unknown
Speed
Unknown
Apparent Right ascension
Unknown
Apparent Declination
Unknown
Sunlit
N/A
Visualization observer readout
Local Sidereal Time
21:24:39
Azimuth
Unknown
Elevation
Unknown
Doppler factor
Unknown
Orbital elements
Apogee altitude
35,798.158 km
Perigee altitude
35,778.559 km
Semi-major axis
42,166.496 km
Eccentricity
0.00023
Inclination
0.0111°
RAAN
338.5957°
Arg. of periapsis
101.7052°
True anomaly
59.7477°
Mean anomaly
59.7247°
Eccentric anomaly
59.7362°
Mean motion
0.25066 °/min
Orbital period
1,436.19 mins
BSTAR
0
Loading maneuver chart data...
Computing Atmospheric mass density...
Loading historical data...
Loading historical data...
Loading historical data...
Loading historical data...
Loading historical data...
Loading historical data...
Loading historical data...
Other satellites on launch #13 in the year 2016 (2016-03-04 UTC)

Documentation

Showing up to 5 results
|